Weather History for Galena, AK

Change the Weather History Date:

Wednesday, November 6, 2013

  Actual Average Record
Temperature  
Mean Temperature 4 °F -  
Max Temperature 18 °F 12 °F 39 °F (2003)
Min Temperature -9 °F 0 °F -32 °F (1956)
Degree Days  
Heating Degree Days 60    
Moisture  
Dew Point 0 °F    
Average Humidity 85    
Maximum Humidity 92    
Minimum Humidity 74    
Precipitation  
Precipitation 0.00 in - - ()
Sea Level Pressure  
Sea Level Pressure 30.24 in    
Wind  
Wind Speed 4 mph (ENE)    
Max Wind Speed 22 mph    
Max Gust Speed 29 mph    
Visibility 8 miles    
Events Fog , Snow    
Averages and records for this station are not official NWS values.
T = Trace of Precipitation, MM = Missing Value Source: NWS Daily Summary

Daily Weather History Graph

Daily Weather History Graph

Search for Another Location

Airport:

Trip Planner

Search our weather history database for the weather conditions in past years. The results will help you decide how hot, cold, wet, or windy it might be!

Date:

Astronomy

Nov. 06, 2013 Rise Set
Actual Time 9:33 AM AKST 4:48 PM AKST
Civil Twilight 8:35 AM AKST 5:45 PM AKST
Nautical Twilight 7:35 AM AKST 6:45 PM AKST
Astronomical Twilight 6:39 AM AKST 7:42 PM AKST
Moon 1:37 PM AKST (11/6) 7:29 PM AKST (11/6)
Length of Visible Light 9h 10m
Length of Day
7h 15m
Waxing Crescent, 15% of the Moon is Illuminated
Nov 6
Waxing Crescent
Nov 9
First Quarter
Nov 17
Full
Nov 25
Last Quarter
Dec 2
New

Hourly Weather History & Observations

Time (AKST) Temp. Windchill Dew Point Humidity Pressure Visibility Wind Dir Wind Speed Gust Speed Precip Events Conditions
12:58 AM 3.0 °F - -0.0 °F 87% 30.38 in 10.0 mi Calm Calm - N/A   Clear
1:58 AM -0.9 °F - -4.0 °F 87% 30.36 in 10.0 mi Calm Calm - N/A   Clear
2:03 AM -0.4 °F - -2.2 °F 92% 30.34 in 10.0 mi Calm Calm - N/A   Partly Cloudy
2:11 AM -0.4 °F - -2.2 °F 92% 30.34 in 1.5 mi Calm Calm - N/A   Mostly Cloudy
2:13 AM -0.4 °F - -2.2 °F 92% 30.34 in 0.8 mi Calm Calm - N/A   Mostly Cloudy
2:16 AM -0.4 °F - -2.2 °F 92% 30.34 in 0.2 mi Calm Calm - N/A Fog Light Freezing Fog
2:26 AM 1.4 °F -9.9 °F -0.4 °F 92% 30.33 in 0.8 mi East 5.8 mph - N/A   Overcast
2:28 AM 1.4 °F -8.3 °F -0.4 °F 92% 30.33 in 1.2 mi East 4.6 mph - N/A   Mostly Cloudy
2:30 AM 1.4 °F -6.2 °F -0.4 °F 92% 30.33 in 6.0 mi ENE 3.5 mph - N/A   Mostly Cloudy
2:41 AM 1.4 °F - -0.4 °F 92% 30.33 in 10.0 mi Calm Calm - N/A   Scattered Clouds
2:58 AM 1.0 °F - -2.9 °F 83% 30.36 in 10.0 mi Calm Calm - N/A   Mostly Cloudy
3:18 AM -0.4 °F - -4.0 °F 85% 30.33 in 10.0 mi Calm Calm - N/A   Scattered Clouds
3:58 AM -2.9 °F -11.2 °F -7.1 °F 82% 30.34 in 10.0 mi ENE 3.5 mph - N/A   Clear
4:58 AM -2.9 °F - -7.1 °F 82% 30.32 in 10.0 mi Calm Calm - N/A   Partly Cloudy
5:58 AM -2.9 °F - -7.1 °F 82% 30.34 in 10.0 mi Calm Calm - N/A   Clear
6:58 AM -4.0 °F -12.4 °F -7.1 °F 87% 30.32 in 10.0 mi NE 3.5 mph - N/A   Clear
7:58 AM -9.0 °F -22.3 °F -13.0 °F 83% 30.31 in 10.0 mi NNE 5.8 mph - N/A   Clear
8:05 AM -9.4 °F -20.9 °F -13.0 °F 84% 30.28 in 10.0 mi North 4.6 mph - N/A   Partly Cloudy
8:58 AM -7.1 °F - -11.0 °F 83% 30.30 in 10.0 mi Calm Calm - N/A   Clear
9:58 AM -6.0 °F -14.7 °F -9.9 °F 83% 30.28 in 10.0 mi NNE 3.5 mph - N/A   Clear
10:58 AM -0.9 °F - -4.0 °F 87% 30.25 in 10.0 mi Calm Calm - N/A   Clear
11:58 AM 1.0 °F -6.7 °F -2.0 °F 87% 30.25 in 9.0 mi WNW 3.5 mph - N/A Snow Light Snow
12:58 PM 3.0 °F -6.4 °F -0.9 °F 84% 30.23 in 10.0 mi NNW 4.6 mph - N/A   Clear
1:58 PM 3.0 °F -12.5 °F -0.9 °F 84% 30.20 in 10.0 mi North 10.4 mph - N/A   Clear
2:58 PM 3.0 °F -10.5 °F -0.0 °F 87% 30.17 in 10.0 mi North 8.1 mph - N/A   Clear
3:58 PM 5.0 °F -9.1 °F 3.0 °F 92% 30.13 in 10.0 mi NNE 9.2 mph - N/A   Clear
4:58 PM 18.0 °F 3.6 °F 12.0 °F 78% 30.10 in 10.0 mi East 15.0 mph 25.3 mph N/A   Clear
5:58 PM 18.0 °F 0.9 °F 10.9 °F 74% 30.05 in 10.0 mi East 21.9 mph 28.8 mph N/A   Clear
6:58 PM 18.0 °F 3.1 °F 12.0 °F 78% 30.06 in 10.0 mi East 16.1 mph - N/A   Clear
7:58 PM 18.0 °F 4.2 °F 12.0 °F 78% 30.04 in 10.0 mi East 13.8 mph - N/A   Clear
8:58 PM 17.1 °F 4.3 °F 10.9 °F 77% 30.03 in 10.0 mi ESE 11.5 mph - N/A   Clear
9:58 PM 17.1 °F 3.0 °F 10.9 °F 77% 30.01 in 10.0 mi ESE 13.8 mph - N/A   Clear
10:58 PM 17.1 °F 2.0 °F 10.0 °F 74% 29.99 in 10.0 mi ESE 16.1 mph - N/A   Clear
11:58 PM 17.1 °F 2.0 °F 10.0 °F 74% 29.97 in 10.0 mi ESE 16.1 mph - N/A   Clear